When you browse on this site, cookies collect data to enhance your experience and personalize the content and advertising you see.
Visit our Privacy Policy to learn more. By continuing to use the site, you agree to this use of cookies and data.
  • In Hungary
  • List of Countries
  • For 7 days
  • Water Temperature
  • Weather Map
  • News
  • Weather Widgets
  • user-avatar
    Login

    Hourly Weather Vitbino

    Today, 24 January, Friday

    Time Temperature Precipitation Wind Pressure Humidity
    00:00 -4°C° 0.2 mm 4 mps 736 mmHg 86%
    01:00 -4°C° 0.2 mm 4 mps 735 mmHg 87%
    02:00 -4°C° 0 mm 4 mps 734 mmHg 88%
    03:00 -4°C° 0.1 mm 4 mps 733 mmHg 90%
    04:00 -3°C° 0.1 mm 4 mps 732 mmHg 92%
    05:00 -4°C° 0.1 mm 5 mps 732 mmHg 95%
    06:00 -4°C° 0.4 mm 5 mps 731 mmHg 95%
    07:00 -2°C° 0.4 mm 5 mps 731 mmHg 96%
    08:00 -1°C° 0.4 mm 5 mps 730 mmHg 96%
    09:00 -1°C° 0.1 mm 5 mps 730 mmHg 94%
    10:00 0°C° 0.1 mm 5 mps 729 mmHg 92%
    11:00 0°C° 0.1 mm 5 mps 729 mmHg 90%
    12:00 0°C° 0.1 mm 5 mps 729 mmHg 90%
    13:00 +1°C° 0.1 mm 5 mps 728 mmHg 90%
    14:00 +1°C° 0.1 mm 5 mps 728 mmHg 90%
    15:00 +1°C° 0.1 mm 5 mps 728 mmHg 91%
    16:00 0°C° 0.1 mm 5 mps 728 mmHg 91%
    17:00 0°C° 0.1 mm 4 mps 728 mmHg 91%
    18:00 0°C° 0.2 mm 4 mps 728 mmHg 93%
    19:00 0°C° 0.2 mm 4 mps 728 mmHg 95%
    20:00 0°C° 0.2 mm 4 mps 728 mmHg 97%
    21:00 0°C° 0.4 mm 4 mps 728 mmHg 96%
    22:00 0°C° 0.4 mm 4 mps 727 mmHg 94%
    23:00 0°C° 0.4 mm 5 mps 727 mmHg 93%

    Tomorrow, 25 January, Saturday

    Time Temperature Precipitation Wind Pressure Humidity
    00:00 0°C° 0.2 mm 4 mps 727 mmHg 93%
    01:00 -1°C° 0.2 mm 4 mps 727 mmHg 93%
    02:00 -1°C° 0.2 mm 4 mps 727 mmHg 93%
    03:00 -1°C° 0 mm 4 mps 727 mmHg 92%
    04:00 -1°C° 0 mm 4 mps 727 mmHg 90%
    05:00 -1°C° 0 mm 5 mps 726 mmHg 89%
    06:00 -1°C° 0 mm 5 mps 726 mmHg 87%
    07:00 -1°C° 0 mm 5 mps 726 mmHg 85%
    08:00 -1°C° 0 mm 5 mps 725 mmHg 83%
    09:00 -2°C° 0.1 mm 6 mps 725 mmHg 81%
    10:00 -2°C° 0.1 mm 6 mps 725 mmHg 78%
    11:00 -2°C° 0.1 mm 7 mps 725 mmHg 75%
    12:00 -2°C° 0.2 mm 7 mps 726 mmHg 72%
    13:00 -2°C° 0.2 mm 7 mps 726 mmHg 69%
    14:00 -3°C° 0.2 mm 7 mps 727 mmHg 65%
    15:00 -3°C° 0 mm 6 mps 727 mmHg 66%
    16:00 -4°C° 0 mm 6 mps 727 mmHg 67%
    17:00 -4°C° 0 mm 6 mps 728 mmHg 68%
    18:00 -5°C° 0 mm 6 mps 728 mmHg 69%
    19:00 -5°C° 0 mm 6 mps 729 mmHg 70%
    20:00 -5°C° 0 mm 6 mps 729 mmHg 71%
    21:00 -5°C° 0 mm 6 mps 730 mmHg 72%
    22:00 -5°C° 0 mm 6 mps 731 mmHg 73%
    23:00 -5°C° 0 mm 5 mps 732 mmHg 74%

    Day after tomorrow, 26 January, Sunday

    Time Temperature Precipitation Wind Pressure Humidity
    00:00 -5°C° 0 mm 5 mps 733 mmHg 76%
    01:00 -5°C° 0 mm 5 mps 733 mmHg 77%
    02:00 -4°C° 0 mm 4 mps 734 mmHg 78%
    03:00 -5°C° 0 mm 4 mps 734 mmHg 79%
    04:00 -5°C° 0 mm 3 mps 735 mmHg 80%
    05:00 -5°C° 0 mm 3 mps 735 mmHg 81%
    06:00 -5°C° 0 mm 3 mps 735 mmHg 79%
    07:00 -5°C° 0 mm 3 mps 735 mmHg 78%
    08:00 -5°C° 0 mm 3 mps 735 mmHg 76%
    09:00 -4°C° 0 mm 3 mps 735 mmHg 76%
    10:00 -3°C° 0 mm 4 mps 735 mmHg 76%
    11:00 -3°C° 0 mm 4 mps 735 mmHg 76%
    12:00 -2°C° 0.3 mm 4 mps 735 mmHg 82%
    13:00 -2°C° 0.3 mm 4 mps 734 mmHg 88%
    14:00 -2°C° 0.3 mm 5 mps 734 mmHg 94%
    15:00 -1°C° 0.5 mm 5 mps 734 mmHg 94%
    16:00 0°C° 0.5 mm 5 mps 733 mmHg 94%
    17:00 +1°C° 0.5 mm 5 mps 733 mmHg 94%
    18:00 +1°C° 0.1 mm 5 mps 733 mmHg 93%
    19:00 +1°C° 0.1 mm 5 mps 734 mmHg 92%
    20:00 +1°C° 0.1 mm 5 mps 734 mmHg 91%
    21:00 +1°C° 0 mm 5 mps 734 mmHg 92%
    22:00 +1°C° 0 mm 5 mps 734 mmHg 92%
    23:00 +1°C° 0 mm 5 mps 734 mmHg 92%

    27 January, Monday

    Time Temperature Precipitation Wind Pressure Humidity
    00:00 +1°C° 0 mm 5 mps 734 mmHg 93%
    01:00 +1°C° 0 mm 5 mps 735 mmHg 93%
    02:00 +1°C° 0 mm 4 mps 735 mmHg 93%
    03:00 0°C° 0.1 mm 4 mps 735 mmHg 94%
    04:00 0°C° 0.1 mm 4 mps 735 mmHg 95%
    05:00 0°C° 0.1 mm 4 mps 735 mmHg 95%
    06:00 0°C° 0.4 mm 4 mps 735 mmHg 96%
    07:00 +1°C° 0.4 mm 3 mps 735 mmHg 96%
    08:00 +1°C° 0.4 mm 3 mps 735 mmHg 97%
    09:00 +1°C° 0.2 mm 3 mps 735 mmHg 97%
    10:00 +1°C° 0.2 mm 3 mps 736 mmHg 97%
    11:00 +1°C° 0.2 mm 3 mps 736 mmHg 97%
    12:00 +1°C° 0.1 mm 3 mps 736 mmHg 97%
    13:00 +1°C° 0.1 mm 3 mps 736 mmHg 97%
    14:00 +1°C° 0.1 mm 3 mps 736 mmHg 97%
    15:00 +1°C° 0.1 mm 3 mps 736 mmHg 97%
    16:00 +1°C° 0.1 mm 3 mps 736 mmHg 96%
    17:00 +1°C° 0.1 mm 3 mps 736 mmHg 96%
    18:00 +1°C° 0 mm 3 mps 736 mmHg 96%
    19:00 +2°C° 0 mm 2 mps 736 mmHg 97%
    20:00 +1°C° 0 mm 2 mps 736 mmHg 97%
    21:00 +1°C° 0.2 mm 2 mps 736 mmHg 97%
    22:00 +1°C° 0.2 mm 2 mps 736 mmHg 97%
    23:00 +1°C° 0.2 mm 2 mps 736 mmHg 97%

    28 January, Tuesday

    Time Temperature Precipitation Wind Pressure Humidity
    00:00 +1°C° 0.2 mm 2 mps 736 mmHg 97%
    01:00 +1°C° 0.2 mm 2 mps 736 mmHg 97%
    02:00 +1°C° 0.2 mm 2 mps 736 mmHg 97%
    03:00 +1°C° 0 mm 2 mps 736 mmHg 97%
    04:00 +1°C° 0 mm 2 mps 736 mmHg 98%
    05:00 +2°C° 0 mm 1 mps 736 mmHg 98%
    06:00 +2°C° 0 mm 1 mps 736 mmHg 98%
    07:00 +2°C° 0 mm 1 mps 736 mmHg 98%
    08:00 +2°C° 0 mm 1 mps 736 mmHg 98%
    09:00 +2°C° 0 mm 1 mps 736 mmHg 97%
    10:00 +1°C° 0 mm 2 mps 736 mmHg 97%
    11:00 +1°C° 0 mm 2 mps 736 mmHg 96%
    12:00 +1°C° 0 mm 2 mps 736 mmHg 96%
    13:00 +1°C° 0 mm 2 mps 736 mmHg 96%
    14:00 +1°C° 0 mm 2 mps 736 mmHg 95%
    15:00 +1°C° 0 mm 2 mps 735 mmHg 95%
    16:00 -1°C° 0 mm 2 mps 735 mmHg 96%
    17:00 -1°C° 0 mm 2 mps 735 mmHg 96%
    18:00 -1°C° 0 mm 2 mps 735 mmHg 96%
    19:00 -1°C° 0 mm 2 mps 735 mmHg 95%
    20:00 -1°C° 0 mm 2 mps 735 mmHg 95%
    21:00 -1°C° 0 mm 3 mps 735 mmHg 95%
    22:00 -1°C° 0 mm 3 mps 735 mmHg 94%
    23:00 -1°C° 0 mm 3 mps 735 mmHg 94%

    29 January, Wednesday

    Time Temperature Precipitation Wind Pressure Humidity
    00:00 -1°C° 0 mm 3 mps 735 mmHg 95%
    01:00 -1°C° 0 mm 3 mps 735 mmHg 95%
    02:00 0°C° 0 mm 3 mps 734 mmHg 96%
    03:00 0°C° 0 mm 3 mps 734 mmHg 96%
    04:00 0°C° 0 mm 3 mps 734 mmHg 96%
    05:00 0°C° 0 mm 3 mps 733 mmHg 96%
    06:00 -1°C° 0 mm 4 mps 733 mmHg 94%
    07:00 -1°C° 0 mm 4 mps 733 mmHg 93%
    08:00 -1°C° 0 mm 4 mps 733 mmHg 91%
    09:00 -1°C° 0.1 mm 4 mps 733 mmHg 92%
    10:00 -1°C° 0.1 mm 4 mps 732 mmHg 93%
    11:00 -1°C° 0.1 mm 4 mps 732 mmHg 95%
    12:00 -1°C° 0 mm 4 mps 732 mmHg 93%
    13:00 0°C° 0 mm 5 mps 732 mmHg 91%
    14:00 0°C° 0 mm 5 mps 731 mmHg 89%
    15:00 -1°C° 0 mm 5 mps 731 mmHg 90%
    16:00 -1°C° 0 mm 5 mps 731 mmHg 91%
    17:00 -1°C° 0 mm 5 mps 731 mmHg 93%
    18:00 -1°C° 0.1 mm 5 mps 730 mmHg 93%
    19:00 -1°C° 0.1 mm 5 mps 730 mmHg 94%
    20:00 -1°C° 0.1 mm 5 mps 730 mmHg 95%
    21:00 -1°C° 0.1 mm 5 mps 730 mmHg 95%
    22:00 -1°C° 0.1 mm 5 mps 729 mmHg 95%
    23:00 -1°C° 0.1 mm 5 mps 729 mmHg 95%
    Show more